Weather History for Clinton, MO

Change the Weather History Date:

Saturday, May 25, 2013

  Actual Average (KSZL) Record (KSZL)
Temperature  
Mean Temperature 68 °F -  
Max Temperature 80 °F 75 °F 90 °F (2012)
Min Temperature 57 °F 55 °F 44 °F (2001)
Cooling Degree Days 4    
Growing Degree Days 18 (Base 50)    
Moisture  
Dew Point 58 °F    
Average Humidity 67    
Maximum Humidity 83    
Minimum Humidity 52    
Precipitation  
Precipitation 0.00 in - - ()
Sea Level Pressure  
Sea Level Pressure 30.15 in    
Wind  
Wind Speed 8 mph (South)    
Max Wind Speed 13 mph    
Max Gust Speed 17 mph    
Visibility 10 miles    
Events Thunderstorm    
Averages and records for this station are not official NWS values.
T = Trace of Precipitation, MM = Missing Value Source: NWS Daily Summary

Daily Weather History Graph

Daily Weather History Graph

Search for Another Location

Airport:

Trip Planner

Search our weather history database for the weather conditions in past years. The results will help you decide how hot, cold, wet, or windy it might be!

Date:

Astronomy

May. 25, 2013 Rise Set
Actual Time 5:56 AM CDT 8:27 PM CDT
Civil Twilight 5:25 AM CDT 8:58 PM CDT
Nautical Twilight 4:47 AM CDT 9:36 PM CDT
Astronomical Twilight 4:05 AM CDT 10:18 PM CDT
Moon 9:16 PM CDT (5/25) 6:23 AM CDT (5/25)
Length of Visible Light 15h 32m
Length of Day
14h 31m
Full, 100% of the Moon is Illuminated
May 25
Full
May 31
Last Quarter
Jun 8
New
Jun 16
First Quarter
Jun 23
Full

Hourly Weather History & Observations

Time (CDT) Temp. Heat Index Dew Point Humidity Pressure Visibility Wind Dir Wind Speed Gust Speed Precip Events Conditions
12:15 AM 62.6 °F - 46.4 °F 55% 30.20 in 10.0 mi SSE 9.2 mph - N/A   Clear
12:35 AM 64.4 °F - 46.4 °F 52% 30.20 in 10.0 mi SSE 9.2 mph - N/A   Clear
12:55 AM 62.6 °F - 46.4 °F 55% 30.20 in 10.0 mi SSE 12.7 mph 16.1 mph N/A   Clear
1:15 AM 62.6 °F - 46.4 °F 55% 30.20 in 10.0 mi SSE 9.2 mph - N/A   Clear
1:35 AM 62.6 °F - 46.4 °F 55% 30.20 in 10.0 mi SSE 11.5 mph 17.3 mph N/A   Partly Cloudy
1:55 AM 62.6 °F - 46.4 °F 55% 30.19 in 10.0 mi SE 9.2 mph - N/A   Partly Cloudy
2:15 AM 62.6 °F - 46.4 °F 55% 30.19 in 10.0 mi SSE 11.5 mph 16.1 mph N/A   Clear
2:35 AM 62.6 °F - 46.4 °F 55% 30.19 in 10.0 mi SSE 12.7 mph 16.1 mph N/A   Clear
2:55 AM 62.6 °F - 46.4 °F 55% 30.19 in 10.0 mi SSE 9.2 mph - N/A   Partly Cloudy
3:15 AM 62.6 °F - 46.4 °F 55% 30.20 in 10.0 mi SSE 8.1 mph - N/A   Clear
3:35 AM 60.8 °F - 48.2 °F 63% 30.20 in 10.0 mi SSE 8.1 mph - N/A   Clear
3:55 AM 60.8 °F - 48.2 °F 63% 30.21 in 10.0 mi SSE 5.8 mph - N/A   Clear
4:15 AM 60.8 °F - 48.2 °F 63% 30.21 in 10.0 mi Calm Calm - N/A   Clear
4:35 AM 60.8 °F - 48.2 °F 63% 30.21 in 10.0 mi SSE 5.8 mph - N/A   Scattered Clouds
4:55 AM 60.8 °F - 48.2 °F 63% 30.22 in 10.0 mi SSE 4.6 mph - N/A   Mostly Cloudy
5:15 AM 60.8 °F - 48.2 °F 63% 30.21 in 10.0 mi South 8.1 mph - N/A   Mostly Cloudy
5:35 AM 60.8 °F - 46.4 °F 59% 30.21 in 10.0 mi SSE 8.1 mph - N/A   Overcast
5:55 AM 60.8 °F - 46.4 °F 59% 30.20 in 10.0 mi SSE 9.2 mph - N/A Thunderstorm Scattered Clouds
6:15 AM 60.8 °F - 48.2 °F 63% 30.19 in 10.0 mi South 6.9 mph - N/A   Mostly Cloudy
6:35 AM 60.8 °F - 48.2 °F 63% 30.21 in 10.0 mi South 6.9 mph - N/A   Overcast
6:55 AM 60.8 °F - 48.2 °F 63% 30.21 in 10.0 mi South 9.2 mph - N/A   Overcast
7:15 AM 60.8 °F - 48.2 °F 63% 30.21 in 10.0 mi South 11.5 mph - N/A Thunderstorm Thunderstorm
7:35 AM 60.8 °F - 50.0 °F 68% 30.21 in 10.0 mi South 10.4 mph - N/A Thunderstorm Thunderstorm
7:55 AM 57.2 °F - 51.8 °F 82% 30.20 in 9.0 mi South 8.1 mph - N/A Thunderstorm Partly Cloudy
8:15 AM 57.2 °F - 51.8 °F 82% 30.20 in 10.0 mi SSE 9.2 mph - N/A Thunderstorm Clear
8:35 AM 59.0 °F - 51.8 °F 77% 30.20 in 10.0 mi SSE 6.9 mph - N/A Thunderstorm Clear
8:55 AM 60.8 °F - 53.6 °F 77% 30.18 in 10.0 mi South 4.6 mph - N/A   Clear
9:15 AM 62.6 °F - 53.6 °F 72% 30.18 in 10.0 mi South 8.1 mph - N/A   Clear
9:35 AM 62.6 °F - 55.4 °F 77% 30.18 in 10.0 mi South 8.1 mph - N/A   Clear
9:55 AM 64.4 °F - 55.4 °F 73% 30.18 in 10.0 mi South 8.1 mph 16.1 mph N/A   Clear
10:15 AM 64.4 °F - 57.2 °F 77% 30.18 in 10.0 mi SSW 9.2 mph - N/A   Clear
10:35 AM 66.2 °F - 57.2 °F 73% 30.18 in 10.0 mi South 9.2 mph - N/A   Clear
10:55 AM 68.0 °F - 59.0 °F 73% 30.19 in 10.0 mi South 8.1 mph - N/A   Clear
11:15 AM 69.8 °F - 60.8 °F 73% 30.20 in 10.0 mi South 10.4 mph - N/A   Clear
11:35 AM 71.6 °F - 62.6 °F 73% 30.19 in 10.0 mi South 10.4 mph - N/A   Partly Cloudy
11:55 AM 71.6 °F - 62.6 °F 73% 30.18 in 10.0 mi South 8.1 mph - N/A   Partly Cloudy
12:15 PM 73.4 °F - 62.6 °F 69% 30.18 in 10.0 mi South 9.2 mph - N/A   Clear
12:35 PM 73.4 °F - 64.4 °F 73% 30.18 in 10.0 mi SSW 4.6 mph - N/A   Clear
12:55 PM 75.2 °F - 64.4 °F 69% 30.18 in 10.0 mi South 4.6 mph - N/A   Partly Cloudy
1:15 PM 77.0 °F - 66.2 °F 69% 30.18 in 10.0 mi SSW 5.8 mph - N/A   Partly Cloudy
1:35 PM 77.0 °F - 66.2 °F 69% 30.17 in 10.0 mi South 5.8 mph - N/A   Partly Cloudy
1:55 PM 77.0 °F - 64.4 °F 65% 30.16 in 9.0 mi SE 6.9 mph - N/A   Partly Cloudy
2:15 PM 78.8 °F - 66.2 °F 65% 30.15 in 10.0 mi South 6.9 mph - N/A   Clear
2:35 PM 78.8 °F - 66.2 °F 65% 30.15 in 10.0 mi South 6.9 mph - N/A   Partly Cloudy
2:55 PM 78.8 °F - 66.2 °F 65% 30.14 in 10.0 mi South 10.4 mph - N/A   Clear
3:15 PM 78.8 °F - 66.2 °F 65% 30.14 in 9.0 mi South 6.9 mph - N/A   Clear
3:35 PM 80.6 °F 83.2 °F 68.0 °F 65% 30.13 in 10.0 mi South 10.4 mph - N/A   Partly Cloudy
3:55 PM 80.6 °F 82.7 °F 66.2 °F 61% 30.12 in 10.0 mi SSW 10.4 mph - N/A   Partly Cloudy
4:15 PM 80.6 °F 83.2 °F 68.0 °F 65% 30.12 in 10.0 mi South 9.2 mph - N/A   Partly Cloudy
4:35 PM 80.6 °F 83.2 °F 68.0 °F 65% 30.11 in 9.0 mi South 11.5 mph - N/A   Partly Cloudy
4:55 PM 80.6 °F 82.7 °F 66.2 °F 61% 30.10 in 10.0 mi SSW 8.1 mph 16.1 mph N/A   Clear
5:15 PM 80.6 °F 82.7 °F 66.2 °F 61% 30.09 in 9.0 mi South 6.9 mph - N/A   Clear
5:35 PM 80.6 °F 82.7 °F 66.2 °F 61% 30.08 in 10.0 mi South 6.9 mph - N/A   Clear
5:55 PM 80.6 °F 82.7 °F 66.2 °F 61% 30.07 in 10.0 mi South 10.4 mph - N/A   Clear
6:15 PM 80.6 °F 82.7 °F 66.2 °F 61% 30.06 in 10.0 mi South 10.4 mph - N/A   Clear
6:35 PM 80.6 °F 82.7 °F 66.2 °F 61% 30.05 in 10.0 mi South 10.4 mph - N/A   Clear
6:55 PM 80.6 °F 83.2 °F 68.0 °F 65% 30.05 in 10.0 mi South 5.8 mph - N/A   Clear
7:15 PM 80.6 °F 82.7 °F 66.2 °F 61% 30.05 in 10.0 mi South 6.9 mph - N/A   Clear
7:35 PM 78.8 °F - 68.0 °F 69% 30.05 in 9.0 mi SSE 3.5 mph - N/A   Clear
7:55 PM 78.8 °F - 68.0 °F 69% 30.05 in 10.0 mi SSE 5.8 mph - N/A   Clear
8:15 PM 77.0 °F - 66.2 °F 69% 30.05 in 10.0 mi SE 3.5 mph - N/A   Clear
8:35 PM 75.2 °F - 66.2 °F 73% 30.05 in 10.0 mi SE 4.6 mph - N/A   Clear
8:55 PM 75.2 °F - 66.2 °F 73% 30.05 in 10.0 mi Calm Calm - N/A   Clear
9:15 PM 73.4 °F - 66.2 °F 78% 30.05 in 10.0 mi Calm Calm - N/A   Clear
9:35 PM 73.4 °F - 66.2 °F 78% 30.06 in 10.0 mi SSE 3.5 mph - N/A   Clear
9:55 PM 73.4 °F - 66.2 °F 78% 30.07 in 10.0 mi Calm Calm - N/A   Clear
10:15 PM 73.4 °F - 66.2 °F 78% 30.08 in 10.0 mi Calm Calm - N/A   Clear
10:35 PM 71.6 °F - 66.2 °F 83% 30.09 in 10.0 mi Calm Calm - N/A   Clear
10:55 PM 71.6 °F - 66.2 °F 83% 30.09 in 10.0 mi Calm Calm - N/A   Clear
11:15 PM 71.6 °F - 64.4 °F 78% 30.09 in 10.0 mi Calm Calm - N/A   Clear
11:35 PM 69.8 °F - 64.4 °F 83% 30.10 in 10.0 mi Calm Calm - N/A   Clear
11:55 PM 71.6 °F - 64.4 °F 78% 30.10 in 10.0 mi Calm Calm - N/A   Partly Cloudy